Location: Ar Ranvel
(48.3000°N, 4.8833°W)
Time: 20:47:25
(UTC+00:00)

Meteor 2-10 Rocket - Pass Details

Date: 27 October 2021
Orbit: 733 x 885 km, 81.2° (Epoch: 30 November)

Event Time Altitude Azimuth Distance (km) Brightness Sun altitude
Rises 19:39:09 0° 220° (SW) 3,368 7.2 -25.6°
Reaches altitude 10° 19:41:52 10° 230° (SW) 2,413 6.6 -26.0°
Maximum altitude 19:46:38 31° 292° (WNW) 1,387 5.4 -26.8°
Drops below altitude 10° 19:51:17 10° 354° (N) 2,338 6.2 -27.6°
Sets 19:53:53 0° 5° (N) 3,247 6.8 -28.0°
